Weather History for Olathe New Century, KS

Change the Weather History Date:

Saturday, January 18, 2014

  Actual Average Record
Temperature  
Mean Temperature 34 °F -  
Max Temperature 48 °F 37 °F 60 °F (2015)
Min Temperature 21 °F 19 °F 5 °F (1997)
Degree Days  
Heating Degree Days 30    
Moisture  
Dew Point 18 °F    
Average Humidity 54    
Maximum Humidity 78    
Minimum Humidity 37    
Precipitation  
Precipitation 0.00 in - - ()
Sea Level Pressure  
Sea Level Pressure 29.92 in    
Wind  
Wind Speed 14 mph (WNW)    
Max Wind Speed 28 mph    
Max Gust Speed 45 mph    
Visibility 10 miles    
Events      
Averages and records for this station are not official NWS values.
T = Trace of Precipitation, MM = Missing Value Source: NWS Daily Summary

Daily Weather History Graph

Daily Weather History Graph

Search for Another Location

Airport:

Trip Planner

Search our weather history database for the weather conditions in past years. The results will help you decide how hot, cold, wet, or windy it might be!

Date:

Astronomy

Jan. 18, 2014 Rise Set
Actual Time 7:35 AM CST 5:25 PM CST
Civil Twilight 7:06 AM CST 5:54 PM CST
Nautical Twilight 6:33 AM CST 6:26 PM CST
Astronomical Twilight 6:01 AM CST 6:58 PM CST
Moon 8:06 PM CST (1/18) 8:37 AM CST (1/18)
Length of Visible Light 10h 47m
Length of Day
9h 50m
Waning Gibbous, 94% of the Moon is Illuminated
Jan 18
Waning Gibbous
Jan 23
Last Quarter
Jan 30
New
Feb 6
First Quarter
Feb 14
Full

Hourly Weather History & Observations

Time (CST) Temp. Windchill Dew Point Humidity Pressure Visibility Wind Dir Wind Speed Gust Speed Precip Events Conditions
12:53 AM 27.0 °F 19.5 °F 12.0 °F 53% 30.00 in 10.0 mi South 6.9 mph - N/A   Overcast
1:53 AM 28.0 °F 19.3 °F 14.0 °F 56% 29.95 in 10.0 mi South 9.2 mph - N/A   Overcast
2:53 AM 28.0 °F 17.0 °F 15.1 °F 58% 29.90 in 10.0 mi South 13.8 mph - N/A   Partly Cloudy
3:53 AM 28.0 °F 19.3 °F 15.1 °F 58% 29.86 in 10.0 mi South 9.2 mph - N/A   Clear
4:53 AM 30.9 °F 20.7 °F 15.1 °F 52% 29.81 in 10.0 mi South 13.8 mph - N/A   Scattered Clouds
5:53 AM 32.0 °F 21.2 °F 16.0 °F 52% 29.78 in 10.0 mi SW 16.1 mph - N/A   Overcast
6:53 AM 35.1 °F 26.9 °F 18.0 °F 50% 29.77 in 10.0 mi WSW 11.5 mph - N/A   Overcast
7:53 AM 34.0 °F 26.0 °F 19.0 °F 54% 29.77 in 10.0 mi WSW 10.4 mph - N/A   Mostly Cloudy
8:53 AM 39.0 °F 31.8 °F 21.0 °F 49% 29.78 in 10.0 mi West 11.5 mph - N/A   Clear
9:53 AM 43.0 °F 34.8 °F 23.0 °F 45% 29.79 in 10.0 mi West 18.4 mph 26.5 mph N/A   Partly Cloudy
10:53 AM 46.9 °F - 25.0 °F 42% 29.80 in 10.0 mi WNW 16.1 mph 27.6 mph N/A   Partly Cloudy
11:53 AM 48.9 °F - 24.1 °F 38% 29.80 in 10.0 mi WNW 26.5 mph 35.7 mph N/A   Scattered Clouds
12:53 PM 46.0 °F 37.6 °F 24.1 °F 42% 29.80 in 10.0 mi NW 24.2 mph 44.9 mph N/A   Overcast
1:53 PM 46.0 °F 37.8 °F 23.0 °F 40% 29.80 in 10.0 mi WNW 23.0 mph 35.7 mph N/A   Overcast
2:53 PM 48.0 °F - 23.0 °F 37% 29.83 in 10.0 mi WNW 24.2 mph 41.4 mph N/A   Overcast
3:53 PM 45.0 °F 35.6 °F 21.0 °F 39% 29.88 in 10.0 mi NW 27.6 mph 36.8 mph N/A   Overcast
4:53 PM 39.0 °F 27.6 °F 21.0 °F 49% 29.95 in 10.0 mi NNW 27.6 mph 35.7 mph N/A   Clear
5:53 PM 32.0 °F 18.1 °F 18.0 °F 56% 30.01 in 10.0 mi NNW 27.6 mph 41.4 mph N/A   Clear
6:53 PM 28.0 °F 14.9 °F 16.0 °F 61% 30.08 in 10.0 mi NNW 19.6 mph 28.8 mph N/A   Clear
7:53 PM 26.1 °F 13.6 °F 16.0 °F 66% 30.11 in 10.0 mi NNW 16.1 mph - N/A   Clear
8:53 PM 25.0 °F 14.2 °F 16.0 °F 69% 30.13 in 10.0 mi NW 11.5 mph - N/A   Clear
9:53 PM 23.0 °F 12.4 °F 16.0 °F 74% 30.12 in 10.0 mi NNW 10.4 mph - N/A   Clear
10:53 PM 21.0 °F 13.4 °F 15.1 °F 78% 30.14 in 10.0 mi NNW 5.8 mph - N/A   Clear
11:53 PM 21.0 °F 13.4 °F 15.1 °F 78% 30.14 in 10.0 mi NW 5.8 mph - N/A   Clear